Driggs, ID

2:35 AM MST on December 09, 2016 (GMT -0700)
Driggs

Weather History for KDIJ - February, 2013

Change the Weather History Date:

Wednesday, February 13, 2013

  Actual Average (KJAC) Record (KJAC)
Temperature  
Mean Temperature 26 °F -  
Max Temperature 29 °F 33 °F 44 °F (1967)
Min Temperature 23 °F 8 °F -18 °F (1965)
Degree Days  
Heating Degree Days 39    
Moisture  
Dew Point 22 °F    
Average Humidity 85    
Maximum Humidity 93    
Minimum Humidity 78    
Precipitation  
Precipitation 0.00 in - - ()
Sea Level Pressure  
Sea Level Pressure 30.18 in    
Wind  
Wind Speed 12 mph (South)    
Max Wind Speed 17 mph    
Max Gust Speed -    
Visibility 5 miles    
Events Fog , Snow    
Averages and records for this station are not official NWS values.
T = Trace of Precipitation, MM = Missing Value Source: NWS Daily Summary

Daily Weather History Graph

Daily Weather History Graph

Search for Another Location

Airport or City:

Trip Planner

Search our weather history database for the weather conditions in past years. The results will help you decide how hot, cold, wet, or windy it might be!

Date:

Astronomy

Feb. 13, 2013 Rise Set
Actual Time 7:25 AM MST 5:52 PM MST
Civil Twilight 6:55 AM MST 6:21 PM MST
Nautical Twilight 6:22 AM MST 6:55 PM MST
Astronomical Twilight 5:48 AM MST 7:28 PM MST
Moon 8:47 AM MST (2/13) 10:08 PM MST (2/13)
Length of Visible Light 11h 26m
Length of Day
10h 26m
Waxing Crescent, 14% of the Moon is Illuminated
Feb 13
Waxing Crescent
Feb 17
First Quarter
Feb 25
Full
Mar 4
Last Quarter
Mar 11
New

Hourly Weather History & Observations

Time (MST) Temp. Windchill Dew Point Humidity Pressure Visibility Wind Dir Wind Speed Gust Speed Precip Events Conditions
12:56 AM 23.0 °F 13.1 °F 19.0 °F 85% 30.27 in 10.0 mi SSE 9.2 mph - N/A   Overcast
1:56 AM 23.0 °F 14.7 °F 20.1 °F 89% 30.27 in 10.0 mi South 6.9 mph - 0.00 in Snow Light Snow
2:56 AM 23.0 °F 14.7 °F 20.1 °F 89% 30.30 in 10.0 mi South 6.9 mph - 0.00 in Snow Light Snow
3:41 AM 23.0 °F 11.1 °F 19.4 °F 86% 30.20 in 9.0 mi South 12.7 mph - 0.00 in Snow Light Snow
3:56 AM 23.0 °F 10.6 °F 20.1 °F 89% 30.26 in 7.0 mi SSE 13.8 mph - 0.00 in   Overcast
4:14 AM 23.0 °F 10.6 °F 21.2 °F 93% 30.17 in 6.0 mi South 13.8 mph - 0.00 in Snow Light Snow
4:27 AM 23.0 °F 10.1 °F 21.2 °F 93% 30.17 in 6.0 mi South 15.0 mph - 0.00 in Snow Light Snow
4:36 AM 24.8 °F 12.9 °F 21.2 °F 86% 30.18 in 7.0 mi South 13.8 mph - 0.00 in   Overcast
4:44 AM 24.8 °F 11.9 °F 19.4 °F 80% 30.17 in 8.0 mi South 16.1 mph - 0.00 in   Overcast
4:56 AM 24.1 °F 11.5 °F 20.1 °F 85% 30.25 in 6.0 mi South 15.0 mph - 0.00 in Snow Light Snow
5:06 AM 24.8 °F 11.9 °F 19.4 °F 80% 30.17 in 4.0 mi South 16.1 mph - 0.00 in Snow Light Snow
5:37 AM 24.8 °F 12.9 °F 19.4 °F 80% 30.18 in 5.0 mi South 13.8 mph - 0.00 in   Overcast
5:56 AM 23.0 °F 10.6 °F 20.1 °F 89% 30.25 in 6.0 mi South 13.8 mph - 0.00 in   Overcast
6:56 AM 24.1 °F 12.0 °F 20.1 °F 85% 30.23 in 10.0 mi South 13.8 mph - 0.00 in   Overcast
7:56 AM 24.1 °F 12.0 °F 19.0 °F 81% 30.22 in 5.0 mi South 13.8 mph - N/A   Haze
8:05 AM 24.8 °F 12.9 °F 19.4 °F 80% 30.16 in 2.5 mi South 13.8 mph - 0.00 in Snow Light Snow
8:11 AM 24.8 °F 12.4 °F 19.4 °F 80% 30.16 in 1.2 mi South 15.0 mph - 0.00 in Snow Light Snow
8:13 AM 24.8 °F 12.4 °F 19.4 °F 80% 30.16 in 1.0 mi South 15.0 mph - 0.00 in Snow Light Snow
8:15 AM 24.8 °F 13.4 °F 19.4 °F 80% 30.16 in 0.8 mi South 12.7 mph - 0.00 in Snow Light Snow
8:23 AM 24.8 °F 13.4 °F 19.4 °F 80% 30.16 in 0.5 mi South 12.7 mph - 0.00 in Fog , Snow Light Snow
8:49 AM 24.8 °F 12.4 °F 21.2 °F 86% 30.16 in 0.8 mi South 15.0 mph - 0.00 in Snow Light Snow
8:56 AM 24.1 °F 12.5 °F 21.0 °F 88% 30.24 in 1.2 mi South 12.7 mph - 0.00 in Snow Light Snow
8:58 AM 24.8 °F 13.4 °F 21.2 °F 86% 30.17 in 1.8 mi South 12.7 mph - 0.00 in Snow Light Snow
9:01 AM 24.8 °F 13.4 °F 21.2 °F 86% 30.17 in 2.5 mi South 12.7 mph - 0.00 in Snow Light Snow
9:09 AM 24.8 °F 12.9 °F 19.4 °F 80% 30.17 in 5.0 mi South 13.8 mph - 0.00 in Snow Light Snow
9:45 AM 24.8 °F 12.4 °F 19.4 °F 80% 30.16 in 1.8 mi South 15.0 mph - 0.00 in Snow Light Snow
9:56 AM 25.2 °F 13.3 °F 21.0 °F 84% 30.24 in 1.0 mi South 13.8 mph - 0.00 in Snow Light Snow
10:01 AM 24.8 °F 12.9 °F 21.2 °F 86% 30.17 in 1.5 mi South 13.8 mph - 0.00 in Snow Light Snow
10:09 AM 24.8 °F 12.9 °F 21.2 °F 86% 30.17 in 1.5 mi South 13.8 mph - 0.00 in Snow Light Snow
10:24 AM 24.8 °F 13.4 °F 21.2 °F 86% 30.17 in 1.0 mi SSE 12.7 mph - 0.00 in Snow Light Snow
10:34 AM 24.8 °F 13.4 °F 21.2 °F 86% 30.16 in 1.5 mi South 12.7 mph - 0.00 in Snow Light Snow
10:39 AM 24.8 °F 13.4 °F 21.2 °F 86% 30.16 in 3.0 mi SSE 12.7 mph - 0.00 in Snow Light Snow
10:56 AM 26.1 °F 14.0 °F 21.0 °F 81% 30.22 in 10.0 mi South 15.0 mph - 0.00 in   Overcast
11:56 AM 26.1 °F 13.1 °F 22.1 °F 85% 30.20 in 7.0 mi South 17.3 mph - N/A   Overcast
12:44 PM 26.6 °F 15.2 °F 21.2 °F 80% 30.15 in 4.0 mi South 13.8 mph - 0.00 in   Overcast
12:56 PM 26.1 °F 13.6 °F 22.1 °F 85% 30.19 in 5.0 mi South 16.1 mph - 0.00 in   Overcast
1:56 PM 27.1 °F 16.4 °F 23.0 °F 84% 30.19 in 9.0 mi South 12.7 mph - 0.00 in   Overcast
2:56 PM 27.1 °F 16.9 °F 23.0 °F 84% 30.18 in 8.0 mi SSE 11.5 mph - 0.00 in   Overcast
3:56 PM 27.1 °F 15.9 °F 23.0 °F 84% 30.19 in 7.0 mi SSE 13.8 mph - 0.00 in   Overcast
4:39 PM 26.6 °F 15.7 °F 24.8 °F 93% 30.13 in 8.0 mi SSE 12.7 mph - N/A   Overcast
4:56 PM 27.1 °F 16.4 °F 24.1 °F 88% 30.17 in 7.0 mi South 12.7 mph - N/A   Overcast
5:56 PM 28.0 °F 17.5 °F 23.0 °F 81% 30.16 in 10.0 mi South 12.7 mph - N/A   Overcast
6:56 PM 28.0 °F 17.5 °F 23.0 °F 81% 30.16 in 10.0 mi South 12.7 mph - N/A   Overcast
7:56 PM 29.1 °F 18.9 °F 23.0 °F 78% 30.14 in 10.0 mi South 12.7 mph - N/A   Overcast
8:56 PM 29.1 °F 18.9 °F 23.0 °F 78% 30.13 in 10.0 mi South 12.7 mph - N/A   Overcast
9:56 PM 29.1 °F 18.9 °F 23.0 °F 78% 30.13 in 10.0 mi South 12.7 mph - N/A   Overcast
10:56 PM 28.0 °F 20.8 °F 23.0 °F 81% 30.15 in 2.5 mi South 6.9 mph - 0.00 in Snow Light Snow
11:02 PM 28.4 °F 21.2 °F 24.8 °F 86% 30.12 in 1.8 mi South 6.9 mph - 0.00 in Snow Light Snow
11:11 PM 26.6 °F 20.0 °F 24.8 °F 93% 30.12 in 1.0 mi South 5.8 mph - 0.00 in Snow Light Snow
11:22 PM 26.6 °F 22.6 °F 24.8 °F 93% 30.12 in 1.2 mi SSW 3.5 mph - 0.00 in Snow Light Snow
11:31 PM 26.6 °F - 24.8 °F 93% 30.12 in 2.0 mi Calm Calm - 0.00 in Snow Light Snow
11:38 PM 26.6 °F - 24.8 °F 93% 30.13 in 2.0 mi Calm Calm - 0.00 in Snow Light Snow
11:45 PM 26.6 °F 22.6 °F 24.8 °F 93% 30.13 in 1.5 mi East 3.5 mph - 0.00 in Snow Light Snow
11:56 PM 27.1 °F 23.2 °F 25.2 °F 92% 30.16 in 2.0 mi SE 3.5 mph - 0.00 in Snow Light Snow